owner,sensor,date,latitude,longitude,vertical_datum,sea_water_temperature,qcFlag 
TABS,ioos:station:wmo:42051:1,2001-07-01T00:00:00Z,29.6350,-93.6417,-2.0,29.59,11111222 
TABS,ioos:station:wmo:42051:1,2001-07-01T00:30:00Z,29.6350,-93.6417,-2.0,29.58,11111222 
TABS,ioos:station:wmo:42051:1,2001-07-01T01:00:00Z,29.6350,-93.6417,-2.0,29.55,11111222 
TABS,ioos:station:wmo:42051:1,2001-07-01T01:30:00Z,29.6350,-93.6417,-2.0,29.51,11111222 
TABS,ioos:station:wmo:42051:1,2001-07-01T02:00:00Z,29.6350,-93.6417,-2.0,29.48,11111222 
TABS,ioos:station:wmo:42051:1,2001-07-01T02:30:00Z,29.6350,-93.6417,-2.0,29.43,11111222 
TABS,ioos:station:wmo:42051:1,2001-07-01T03:00:00Z,29.6350,-93.6417,-2.0,29.37,11111222 
TABS,ioos:station:wmo:42051:1,2001-07-01T03:30:00Z,29.6350,-93.6417,-2.0,29.38,11111222 
TABS,ioos:station:wmo:42051:1,2001-07-01T04:00:00Z,29.6350,-93.6417,-2.0,29.37,11111222 
TABS,ioos:station:wmo:42051:1,2001-07-01T04:30:00Z,29.6350,-93.6417,-2.0,29.38,11111222 
TABS,ioos:station:wmo:42051:1,2001-07-01T05:00:00Z,29.6350,-93.6417,-2.0,29.35,11111222 
TABS,ioos:station:wmo:42051:1,2001-07-01T05:30:00Z,29.6350,-93.6417,-2.0,29.27,11111222 
TABS,ioos:station:wmo:42051:1,2001-07-01T06:00:00Z,29.6350,-93.6417,-2.0,29.25,11111222 
TABS,ioos:station:wmo:42051:1,2001-07-01T06:30:00Z,29.6350,-93.6417,-2.0,29.27,11111222 
TABS,ioos:station:wmo:42051:1,2001-07-01T07:00:00Z,29.6350,-93.6417,-2.0,29.19,11111222 
TABS,ioos:station:wmo:42051:1,2001-07-01T07:30:00Z,29.6350,-93.6417,-2.0,29.2,11111222 
TABS,ioos:station:wmo:42051:1,2001-07-01T08:00:00Z,29.6350,-93.6417,-2.0,29.19,11111222 
TABS,ioos:station:wmo:42051:1,2001-07-01T08:30:00Z,29.6350,-93.6417,-2.0,29.22,11111222 
TABS,ioos:station:wmo:42051:1,2001-07-01T09:00:00Z,29.6350,-93.6417,-2.0,29.21,11111222 
TABS,ioos:station:wmo:42051:1,2001-07-01T09:30:00Z,29.6350,-93.6417,-2.0,29.18,11111222 
TABS,ioos:station:wmo:42051:1,2001-07-01T10:00:00Z,29.6350,-93.6417,-2.0,29.17,11111222 
TABS,ioos:station:wmo:42051:1,2001-07-01T10:30:00Z,29.6350,-93.6417,-2.0,29.13,11111222 
TABS,ioos:station:wmo:42051:1,2001-07-01T11:00:00Z,29.6350,-93.6417,-2.0,29.13,11111222 
TABS,ioos:station:wmo:42051:1,2001-07-01T11:30:00Z,29.6350,-93.6417,-2.0,29.08,11111222 
TABS,ioos:station:wmo:42051:1,2001-07-01T12:00:00Z,29.6350,-93.6417,-2.0,29.0,11111222 
TABS,ioos:station:wmo:42051:1,2001-07-01T12:30:00Z,29.6350,-93.6417,-2.0,28.97,11111222 
TABS,ioos:station:wmo:42051:1,2001-07-01T13:00:00Z,29.6350,-93.6417,-2.0,28.97,11111222 
TABS,ioos:station:wmo:42051:1,2001-07-01T13:30:00Z,29.6350,-93.6417,-2.0,28.98,11111222 
TABS,ioos:station:wmo:42051:1,2001-07-01T14:00:00Z,29.6350,-93.6417,-2.0,29.07,11111222 
TABS,ioos:station:wmo:42051:1,2001-07-01T14:30:00Z,29.6350,-93.6417,-2.0,29.11,11111222 
TABS,ioos:station:wmo:42051:1,2001-07-01T15:00:00Z,29.6350,-93.6417,-2.0,29.15,11111222 
TABS,ioos:station:wmo:42051:1,2001-07-01T15:30:00Z,29.6350,-93.6417,-2.0,29.14,11111222 
TABS,ioos:station:wmo:42051:1,2001-07-01T16:00:00Z,29.6350,-93.6417,-2.0,29.19,11111222 
TABS,ioos:station:wmo:42051:1,2001-07-01T16:30:00Z,29.6350,-93.6417,-2.0,29.24,11111222 
TABS,ioos:station:wmo:42051:1,2001-07-01T17:00:00Z,29.6350,-93.6417,-2.0,29.25,11111222 
TABS,ioos:station:wmo:42051:1,2001-07-01T17:30:00Z,29.6350,-93.6417,-2.0,29.2,11111222 
TABS,ioos:station:wmo:42051:1,2001-07-01T18:00:00Z,29.6350,-93.6417,-2.0,29.19,11111222 
TABS,ioos:station:wmo:42051:1,2001-07-01T18:30:00Z,29.6350,-93.6417,-2.0,29.19,11111222 
TABS,ioos:station:wmo:42051:1,2001-07-01T19:00:00Z,29.6350,-93.6417,-2.0,29.2,11111222 
TABS,ioos:station:wmo:42051:1,2001-07-01T19:30:00Z,29.6350,-93.6417,-2.0,29.22,11111222 
TABS,ioos:station:wmo:42051:1,2001-07-01T20:00:00Z,29.6350,-93.6417,-2.0,29.33,11111222 
TABS,ioos:station:wmo:42051:1,2001-07-01T20:30:00Z,29.6350,-93.6417,-2.0,29.6,11111222 
TABS,ioos:station:wmo:42051:1,2001-07-01T21:00:00Z,29.6350,-93.6417,-2.0,29.77,11111222 
TABS,ioos:station:wmo:42051:1,2001-07-01T21:30:00Z,29.6350,-93.6417,-2.0,30.1,11111222 
TABS,ioos:station:wmo:42051:1,2001-07-01T22:00:00Z,29.6350,-93.6417,-2.0,30.11,11111222 
TABS,ioos:station:wmo:42051:1,2001-07-01T22:30:00Z,29.6350,-93.6417,-2.0,30.13,11111222 
TABS,ioos:station:wmo:42051:1,2001-07-01T23:00:00Z,29.6350,-93.6417,-2.0,30.11,11111222 
TABS,ioos:station:wmo:42051:1,2001-07-01T23:30:00Z,29.6350,-93.6417,-2.0,29.97,11111222 
TABS,ioos:station:wmo:42051:1,2001-07-02T00:00:00Z,29.6350,-93.6417,-2.0,29.86,11111222 
TABS,ioos:station:wmo:42051:1,2001-07-02T00:30:00Z,29.6350,-93.6417,-2.0,29.64,11111222 
TABS,ioos:station:wmo:42051:1,2001-07-02T01:00:00Z,29.6350,-93.6417,-2.0,29.49,11111222 
TABS,ioos:station:wmo:42051:1,2001-07-02T01:30:00Z,29.6350,-93.6417,-2.0,29.34,11111222 
TABS,ioos:station:wmo:42051:1,2001-07-02T02:00:00Z,29.6350,-93.6417,-2.0,29.26,11111222 
TABS,ioos:station:wmo:42051:1,2001-07-02T02:30:00Z,29.6350,-93.6417,-2.0,29.19,11111222 
TABS,ioos:station:wmo:42051:1,2001-07-02T03:00:00Z,29.6350,-93.6417,-2.0,29.14,11111222 
TABS,ioos:station:wmo:42051:1,2001-07-02T03:30:00Z,29.6350,-93.6417,-2.0,29.1,11111222 
TABS,ioos:station:wmo:42051:1,2001-07-02T04:00:00Z,29.6350,-93.6417,-2.0,29.08,11111222 
TABS,ioos:station:wmo:42051:1,2001-07-02T04:30:00Z,29.6350,-93.6417,-2.0,29.04,11111222 
TABS,ioos:station:wmo:42051:1,2001-07-02T05:00:00Z,29.6350,-93.6417,-2.0,29.03,11111222 
TABS,ioos:station:wmo:42051:1,2001-07-02T05:30:00Z,29.6350,-93.6417,-2.0,29.01,11111222 
TABS,ioos:station:wmo:42051:1,2001-07-02T06:00:00Z,29.6350,-93.6417,-2.0,29.0,11111222 
TABS,ioos:station:wmo:42051:1,2001-07-02T06:30:00Z,29.6350,-93.6417,-2.0,28.98,11111222 
TABS,ioos:station:wmo:42051:1,2001-07-02T07:00:00Z,29.6350,-93.6417,-2.0,28.96,11111222 
TABS,ioos:station:wmo:42051:1,2001-07-02T07:30:00Z,29.6350,-93.6417,-2.0,28.96,11111222 
TABS,ioos:station:wmo:42051:1,2001-07-02T08:00:00Z,29.6350,-93.6417,-2.0,28.93,11111222 
TABS,ioos:station:wmo:42051:1,2001-07-02T08:30:00Z,29.6350,-93.6417,-2.0,28.86,11111222 
TABS,ioos:station:wmo:42051:1,2001-07-02T09:00:00Z,29.6350,-93.6417,-2.0,28.88,11111222 
TABS,ioos:station:wmo:42051:1,2001-07-02T09:30:00Z,29.6350,-93.6417,-2.0,28.85,11111222 
TABS,ioos:station:wmo:42051:1,2001-07-02T10:00:00Z,29.6350,-93.6417,-2.0,28.84,11111222 
TABS,ioos:station:wmo:42051:1,2001-07-02T10:30:00Z,29.6350,-93.6417,-2.0,28.85,11111222 
TABS,ioos:station:wmo:42051:1,2001-07-02T11:00:00Z,29.6350,-93.6417,-2.0,28.86,11111222 
TABS,ioos:station:wmo:42051:1,2001-07-02T11:30:00Z,29.6350,-93.6417,-2.0,28.86,11111222 
TABS,ioos:station:wmo:42051:1,2001-07-02T12:00:00Z,29.6350,-93.6417,-2.0,28.88,11111222 
TABS,ioos:station:wmo:42051:1,2001-07-02T12:30:00Z,29.6350,-93.6417,-2.0,28.89,11111222 
TABS,ioos:station:wmo:42051:1,2001-07-02T13:00:00Z,29.6350,-93.6417,-2.0,28.93,11111222 
TABS,ioos:station:wmo:42051:1,2001-07-02T13:30:00Z,29.6350,-93.6417,-2.0,28.96,11111222 
TABS,ioos:station:wmo:42051:1,2001-07-02T14:00:00Z,29.6350,-93.6417,-2.0,28.97,11111222 
TABS,ioos:station:wmo:42051:1,2001-07-02T14:30:00Z,29.6350,-93.6417,-2.0,28.97,11111222 
TABS,ioos:station:wmo:42051:1,2001-07-02T15:00:00Z,29.6350,-93.6417,-2.0,29.02,11111222 
TABS,ioos:station:wmo:42051:1,2001-07-02T15:30:00Z,29.6350,-93.6417,-2.0,29.06,11111222 
TABS,ioos:station:wmo:42051:1,2001-07-02T16:00:00Z,29.6350,-93.6417,-2.0,29.11,11111222 
TABS,ioos:station:wmo:42051:1,2001-07-02T16:30:00Z,29.6350,-93.6417,-2.0,29.26,11111222 
TABS,ioos:station:wmo:42051:1,2001-07-02T17:00:00Z,29.6350,-93.6417,-2.0,29.52,11111222 
TABS,ioos:station:wmo:42051:1,2001-07-02T17:30:00Z,29.6350,-93.6417,-2.0,29.72,11111222 
TABS,ioos:station:wmo:42051:1,2001-07-02T18:00:00Z,29.6350,-93.6417,-2.0,29.78,11111222 
TABS,ioos:station:wmo:42051:1,2001-07-02T18:30:00Z,29.6350,-93.6417,-2.0,29.88,11111222 
TABS,ioos:station:wmo:42051:1,2001-07-02T19:00:00Z,29.6350,-93.6417,-2.0,29.87,11111222 
TABS,ioos:station:wmo:42051:1,2001-07-02T19:30:00Z,29.6350,-93.6417,-2.0,30.05,11111222 
TABS,ioos:station:wmo:42051:1,2001-07-02T20:00:00Z,29.6350,-93.6417,-2.0,30.03,11111222 
TABS,ioos:station:wmo:42051:1,2001-07-02T20:30:00Z,29.6350,-93.6417,-2.0,30.03,11111222 
TABS,ioos:station:wmo:42051:1,2001-07-02T21:00:00Z,29.6350,-93.6417,-2.0,29.78,11111222 
TABS,ioos:station:wmo:42051:1,2001-07-02T21:30:00Z,29.6350,-93.6417,-2.0,29.56,11111222 
TABS,ioos:station:wmo:42051:1,2001-07-02T22:00:00Z,29.6350,-93.6417,-2.0,29.41,11111222 
TABS,ioos:station:wmo:42051:1,2001-07-02T22:30:00Z,29.6350,-93.6417,-2.0,29.3,11111222 
TABS,ioos:station:wmo:42051:1,2001-07-02T23:00:00Z,29.6350,-93.6417,-2.0,29.23,11111222 
TABS,ioos:station:wmo:42051:1,2001-07-02T23:30:00Z,29.6350,-93.6417,-2.0,29.2,11111222 
TABS,ioos:station:wmo:42051:1,2001-07-03T00:00:00Z,29.6350,-93.6417,-2.0,29.18,11111222 
TABS,ioos:station:wmo:42051:1,2001-07-03T00:30:00Z,29.6350,-93.6417,-2.0,29.18,11111222 
TABS,ioos:station:wmo:42051:1,2001-07-03T01:00:00Z,29.6350,-93.6417,-2.0,29.18,11111222 
TABS,ioos:station:wmo:42051:1,2001-07-03T01:30:00Z,29.6350,-93.6417,-2.0,29.23,11111222 
TABS,ioos:station:wmo:42051:1,2001-07-03T02:00:00Z,29.6350,-93.6417,-2.0,29.21,11111222 
TABS,ioos:station:wmo:42051:1,2001-07-03T02:30:00Z,29.6350,-93.6417,-2.0,29.2,11111222 
TABS,ioos:station:wmo:42051:1,2001-07-03T03:00:00Z,29.6350,-93.6417,-2.0,29.22,11111222 
TABS,ioos:station:wmo:42051:1,2001-07-03T03:30:00Z,29.6350,-93.6417,-2.0,29.19,11111222 
TABS,ioos:station:wmo:42051:1,2001-07-03T04:00:00Z,29.6350,-93.6417,-2.0,29.2,11111222 
TABS,ioos:station:wmo:42051:1,2001-07-03T04:30:00Z,29.6350,-93.6417,-2.0,29.11,11111222 
TABS,ioos:station:wmo:42051:1,2001-07-03T05:00:00Z,29.6350,-93.6417,-2.0,29.09,11111222 
TABS,ioos:station:wmo:42051:1,2001-07-03T05:30:00Z,29.6350,-93.6417,-2.0,29.02,11111222 
TABS,ioos:station:wmo:42051:1,2001-07-03T06:00:00Z,29.6350,-93.6417,-2.0,28.98,11111222 
TABS,ioos:station:wmo:42051:1,2001-07-03T06:30:00Z,29.6350,-93.6417,-2.0,28.96,11111222 
TABS,ioos:station:wmo:42051:1,2001-07-03T07:00:00Z,29.6350,-93.6417,-2.0,28.94,11111222 
TABS,ioos:station:wmo:42051:1,2001-07-03T07:30:00Z,29.6350,-93.6417,-2.0,28.89,11111222 
TABS,ioos:station:wmo:42051:1,2001-07-03T08:00:00Z,29.6350,-93.6417,-2.0,28.86,11111222 
TABS,ioos:station:wmo:42051:1,2001-07-03T08:30:00Z,29.6350,-93.6417,-2.0,28.84,11111222 
TABS,ioos:station:wmo:42051:1,2001-07-03T09:00:00Z,29.6350,-93.6417,-2.0,28.84,11111222 
TABS,ioos:station:wmo:42051:1,2001-07-03T09:30:00Z,29.6350,-93.6417,-2.0,28.82,11111222 
TABS,ioos:station:wmo:42051:1,2001-07-03T10:00:00Z,29.6350,-93.6417,-2.0,28.81,11111222 
TABS,ioos:station:wmo:42051:1,2001-07-03T10:30:00Z,29.6350,-93.6417,-2.0,28.78,11111222 
TABS,ioos:station:wmo:42051:1,2001-07-03T11:30:00Z,29.6350,-93.6417,-2.0,28.76,11111222 
TABS,ioos:station:wmo:42051:1,2001-07-03T12:00:00Z,29.6350,-93.6417,-2.0,28.73,11111222 
TABS,ioos:station:wmo:42051:1,2001-07-03T12:30:00Z,29.6350,-93.6417,-2.0,28.73,11111222 
TABS,ioos:station:wmo:42051:1,2001-07-03T13:30:00Z,29.6350,-93.6417,-2.0,28.72,11111222 
TABS,ioos:station:wmo:42051:1,2001-07-03T14:00:00Z,29.6350,-93.6417,-2.0,28.73,11111222 
TABS,ioos:station:wmo:42051:1,2001-07-03T14:30:00Z,29.6350,-93.6417,-2.0,28.77,11111222 
TABS,ioos:station:wmo:42051:1,2001-07-03T15:00:00Z,29.6350,-93.6417,-2.0,28.78,11111222 
TABS,ioos:station:wmo:42051:1,2001-07-03T15:30:00Z,29.6350,-93.6417,-2.0,28.81,11111222 
TABS,ioos:station:wmo:42051:1,2001-07-03T16:30:00Z,29.6350,-93.6417,-2.0,28.86,11111222 
TABS,ioos:station:wmo:42051:1,2001-07-03T17:30:00Z,29.6350,-93.6417,-2.0,29.05,11111222 
TABS,ioos:station:wmo:42051:1,2001-07-03T18:00:00Z,29.6350,-93.6417,-2.0,29.14,11111222 
TABS,ioos:station:wmo:42051:1,2001-07-03T20:00:00Z,29.6350,-93.6417,-2.0,29.32,11111222 
TABS,ioos:station:wmo:42051:1,2001-07-03T20:30:00Z,29.6350,-93.6417,-2.0,29.34,11111222 
TABS,ioos:station:wmo:42051:1,2001-07-04T04:00:00Z,29.6350,-93.6417,-2.0,29.43,11111222 
TABS,ioos:station:wmo:42051:1,2001-07-06T20:00:00Z,29.6350,-93.6417,-2.0,31.06,11111222 
TABS,ioos:station:wmo:42051:1,2001-07-06T20:30:00Z,29.6350,-93.6417,-2.0,31.42,11111222 
TABS,ioos:station:wmo:42051:1,2001-07-06T21:00:00Z,29.6350,-93.6417,-2.0,31.03,11111222 
TABS,ioos:station:wmo:42051:1,2001-07-06T21:30:00Z,29.6350,-93.6417,-2.0,30.74,11111222 
TABS,ioos:station:wmo:42051:1,2001-07-06T22:00:00Z,29.6350,-93.6417,-2.0,30.54,11111222 
TABS,ioos:station:wmo:42051:1,2001-07-06T22:30:00Z,29.6350,-93.6417,-2.0,30.3,11111222 
TABS,ioos:station:wmo:42051:1,2001-07-06T23:00:00Z,29.6350,-93.6417,-2.0,30.66,11111222 
TABS,ioos:station:wmo:42051:1,2001-07-06T23:30:00Z,29.6350,-93.6417,-2.0,30.7,11111222 
TABS,ioos:station:wmo:42051:1,2001-07-07T00:00:00Z,29.6350,-93.6417,-2.0,30.62,11111222 
TABS,ioos:station:wmo:42051:1,2001-07-07T00:30:00Z,29.6350,-93.6417,-2.0,30.49,11111222 
TABS,ioos:station:wmo:42051:1,2001-07-07T01:00:00Z,29.6350,-93.6417,-2.0,30.4,11111222 
TABS,ioos:station:wmo:42051:1,2001-07-07T01:30:00Z,29.6350,-93.6417,-2.0,30.49,11111222 
TABS,ioos:station:wmo:42051:1,2001-07-07T02:00:00Z,29.6350,-93.6417,-2.0,30.41,11111222 
TABS,ioos:station:wmo:42051:1,2001-07-07T02:30:00Z,29.6350,-93.6417,-2.0,30.43,11111222 
TABS,ioos:station:wmo:42051:1,2001-07-07T03:00:00Z,29.6350,-93.6417,-2.0,30.12,11111222 
TABS,ioos:station:wmo:42051:1,2001-07-07T03:30:00Z,29.6350,-93.6417,-2.0,29.87,11111222 
TABS,ioos:station:wmo:42051:1,2001-07-07T04:00:00Z,29.6350,-93.6417,-2.0,29.97,11111222 
TABS,ioos:station:wmo:42051:1,2001-07-07T04:30:00Z,29.6350,-93.6417,-2.0,30.31,11111222 
TABS,ioos:station:wmo:42051:1,2001-07-07T05:00:00Z,29.6350,-93.6417,-2.0,30.36,11111222 
TABS,ioos:station:wmo:42051:1,2001-07-07T05:30:00Z,29.6350,-93.6417,-2.0,30.39,11111222 
TABS,ioos:station:wmo:42051:1,2001-07-07T06:00:00Z,29.6350,-93.6417,-2.0,30.5,11111222 
TABS,ioos:station:wmo:42051:1,2001-07-07T06:30:00Z,29.6350,-93.6417,-2.0,30.15,11111222 
TABS,ioos:station:wmo:42051:1,2001-07-07T07:00:00Z,29.6350,-93.6417,-2.0,30.13,11111222 
TABS,ioos:station:wmo:42051:1,2001-07-07T07:30:00Z,29.6350,-93.6417,-2.0,30.15,11111222 
TABS,ioos:station:wmo:42051:1,2001-07-07T08:00:00Z,29.6350,-93.6417,-2.0,30.06,11111222 
TABS,ioos:station:wmo:42051:1,2001-07-07T08:30:00Z,29.6350,-93.6417,-2.0,29.97,11111222 
TABS,ioos:station:wmo:42051:1,2001-07-07T09:00:00Z,29.6350,-93.6417,-2.0,29.9,11111222 
TABS,ioos:station:wmo:42051:1,2001-07-07T09:30:00Z,29.6350,-93.6417,-2.0,29.79,11111222 
TABS,ioos:station:wmo:42051:1,2001-07-07T10:00:00Z,29.6350,-93.6417,-2.0,29.71,11111222 
TABS,ioos:station:wmo:42051:1,2001-07-07T10:30:00Z,29.6350,-93.6417,-2.0,29.71,11111222 
TABS,ioos:station:wmo:42051:1,2001-07-07T11:00:00Z,29.6350,-93.6417,-2.0,29.79,11111222 
TABS,ioos:station:wmo:42051:1,2001-07-07T11:30:00Z,29.6350,-93.6417,-2.0,30.02,11111222 
TABS,ioos:station:wmo:42051:1,2001-07-07T12:00:00Z,29.6350,-93.6417,-2.0,29.92,11111222 
TABS,ioos:station:wmo:42051:1,2001-07-07T12:30:00Z,29.6350,-93.6417,-2.0,30.34,11111222 
TABS,ioos:station:wmo:42051:1,2001-07-07T13:00:00Z,29.6350,-93.6417,-2.0,30.08,11111222 
TABS,ioos:station:wmo:42051:1,2001-07-07T13:30:00Z,29.6350,-93.6417,-2.0,29.84,11111222 
TABS,ioos:station:wmo:42051:1,2001-07-07T14:00:00Z,29.6350,-93.6417,-2.0,29.86,11111222 
TABS,ioos:station:wmo:42051:1,2001-07-07T14:30:00Z,29.6350,-93.6417,-2.0,29.88,11111222 
TABS,ioos:station:wmo:42051:1,2001-07-07T15:00:00Z,29.6350,-93.6417,-2.0,30.07,11111222 
TABS,ioos:station:wmo:42051:1,2001-07-07T15:30:00Z,29.6350,-93.6417,-2.0,30.12,11111222 
TABS,ioos:station:wmo:42051:1,2001-07-07T16:00:00Z,29.6350,-93.6417,-2.0,30.06,11111222 
TABS,ioos:station:wmo:42051:1,2001-07-07T16:30:00Z,29.6350,-93.6417,-2.0,29.93,11111222 
TABS,ioos:station:wmo:42051:1,2001-07-07T17:00:00Z,29.6350,-93.6417,-2.0,29.81,11111222 
TABS,ioos:station:wmo:42051:1,2001-07-07T17:30:00Z,29.6350,-93.6417,-2.0,29.7,11111222 
TABS,ioos:station:wmo:42051:1,2001-07-07T18:00:00Z,29.6350,-93.6417,-2.0,29.61,11111222 
TABS,ioos:station:wmo:42051:1,2001-07-07T18:30:00Z,29.6350,-93.6417,-2.0,29.63,11111222 
TABS,ioos:station:wmo:42051:1,2001-07-07T19:00:00Z,29.6350,-93.6417,-2.0,29.63,11111222 
TABS,ioos:station:wmo:42051:1,2001-07-07T19:30:00Z,29.6350,-93.6417,-2.0,29.57,11111222 
TABS,ioos:station:wmo:42051:1,2001-07-07T20:00:00Z,29.6350,-93.6417,-2.0,29.54,11111222 
TABS,ioos:station:wmo:42051:1,2001-07-07T20:30:00Z,29.6350,-93.6417,-2.0,29.63,11111222 
TABS,ioos:station:wmo:42051:1,2001-07-07T21:00:00Z,29.6350,-93.6417,-2.0,29.91,11111222 
TABS,ioos:station:wmo:42051:1,2001-07-07T21:30:00Z,29.6350,-93.6417,-2.0,29.93,11111222 
TABS,ioos:station:wmo:42051:1,2001-07-07T22:00:00Z,29.6350,-93.6417,-2.0,29.8,11111222 
TABS,ioos:station:wmo:42051:1,2001-07-07T22:30:00Z,29.6350,-93.6417,-2.0,29.81,11111222 
TABS,ioos:station:wmo:42051:1,2001-07-07T23:00:00Z,29.6350,-93.6417,-2.0,29.84,11111222 
TABS,ioos:station:wmo:42051:1,2001-07-07T23:30:00Z,29.6350,-93.6417,-2.0,29.92,11111222 
TABS,ioos:station:wmo:42051:1,2001-07-08T00:00:00Z,29.6350,-93.6417,-2.0,29.82,11111222 
TABS,ioos:station:wmo:42051:1,2001-07-08T00:30:00Z,29.6350,-93.6417,-2.0,29.8,11111222 
TABS,ioos:station:wmo:42051:1,2001-07-08T01:00:00Z,29.6350,-93.6417,-2.0,29.74,11111222 
TABS,ioos:station:wmo:42051:1,2001-07-08T01:30:00Z,29.6350,-93.6417,-2.0,29.67,11111222 
TABS,ioos:station:wmo:42051:1,2001-07-08T02:00:00Z,29.6350,-93.6417,-2.0,29.64,11111222 
TABS,ioos:station:wmo:42051:1,2001-07-08T02:30:00Z,29.6350,-93.6417,-2.0,29.6,11111222 
TABS,ioos:station:wmo:42051:1,2001-07-08T03:00:00Z,29.6350,-93.6417,-2.0,29.54,11111222 
TABS,ioos:station:wmo:42051:1,2001-07-08T03:30:00Z,29.6350,-93.6417,-2.0,29.63,11111222 
TABS,ioos:station:wmo:42051:1,2001-07-08T04:00:00Z,29.6350,-93.6417,-2.0,29.55,11111222 
TABS,ioos:station:wmo:42051:1,2001-07-08T04:30:00Z,29.6350,-93.6417,-2.0,29.57,11111222 
TABS,ioos:station:wmo:42051:1,2001-07-08T05:00:00Z,29.6350,-93.6417,-2.0,29.59,11111222 
TABS,ioos:station:wmo:42051:1,2001-07-08T05:30:00Z,29.6350,-93.6417,-2.0,29.75,11111222 
TABS,ioos:station:wmo:42051:1,2001-07-08T06:00:00Z,29.6350,-93.6417,-2.0,29.8,11111222 
TABS,ioos:station:wmo:42051:1,2001-07-08T06:30:00Z,29.6350,-93.6417,-2.0,29.8,11111222 
TABS,ioos:station:wmo:42051:1,2001-07-08T07:00:00Z,29.6350,-93.6417,-2.0,29.82,11111222 
TABS,ioos:station:wmo:42051:1,2001-07-08T07:30:00Z,29.6350,-93.6417,-2.0,29.77,11111222 
TABS,ioos:station:wmo:42051:1,2001-07-08T08:00:00Z,29.6350,-93.6417,-2.0,29.72,11111222 
TABS,ioos:station:wmo:42051:1,2001-07-08T08:30:00Z,29.6350,-93.6417,-2.0,29.6,11111222 
TABS,ioos:station:wmo:42051:1,2001-07-08T09:00:00Z,29.6350,-93.6417,-2.0,29.61,11111222 
TABS,ioos:station:wmo:42051:1,2001-07-08T09:30:00Z,29.6350,-93.6417,-2.0,29.66,11111222 
TABS,ioos:station:wmo:42051:1,2001-07-08T10:00:00Z,29.6350,-93.6417,-2.0,29.86,11111222 
TABS,ioos:station:wmo:42051:1,2001-07-08T10:30:00Z,29.6350,-93.6417,-2.0,29.73,11111222 
TABS,ioos:station:wmo:42051:1,2001-07-08T11:00:00Z,29.6350,-93.6417,-2.0,29.68,11111222 
TABS,ioos:station:wmo:42051:1,2001-07-08T11:30:00Z,29.6350,-93.6417,-2.0,29.47,11111222 
TABS,ioos:station:wmo:42051:1,2001-07-08T12:00:00Z,29.6350,-93.6417,-2.0,29.45,11111222 
TABS,ioos:station:wmo:42051:1,2001-07-08T12:30:00Z,29.6350,-93.6417,-2.0,29.52,11111222 
TABS,ioos:station:wmo:42051:1,2001-07-08T13:00:00Z,29.6350,-93.6417,-2.0,29.56,11111222 
TABS,ioos:station:wmo:42051:1,2001-07-08T13:30:00Z,29.6350,-93.6417,-2.0,29.53,11111222 
TABS,ioos:station:wmo:42051:1,2001-07-08T14:00:00Z,29.6350,-93.6417,-2.0,29.65,11111222 
TABS,ioos:station:wmo:42051:1,2001-07-08T14:30:00Z,29.6350,-93.6417,-2.0,29.5,11111222 
TABS,ioos:station:wmo:42051:1,2001-07-08T15:00:00Z,29.6350,-93.6417,-2.0,29.47,11111222 
TABS,ioos:station:wmo:42051:1,2001-07-08T15:30:00Z,29.6350,-93.6417,-2.0,29.56,11111222 
TABS,ioos:station:wmo:42051:1,2001-07-08T16:00:00Z,29.6350,-93.6417,-2.0,29.8,11111222 
TABS,ioos:station:wmo:42051:1,2001-07-08T16:30:00Z,29.6350,-93.6417,-2.0,29.81,11111222 
TABS,ioos:station:wmo:42051:1,2001-07-08T17:00:00Z,29.6350,-93.6417,-2.0,29.66,11111222 
TABS,ioos:station:wmo:42051:1,2001-07-08T17:30:00Z,29.6350,-93.6417,-2.0,29.78,11111222 
TABS,ioos:station:wmo:42051:1,2001-07-08T18:00:00Z,29.6350,-93.6417,-2.0,29.52,11111222 
TABS,ioos:station:wmo:42051:1,2001-07-08T18:30:00Z,29.6350,-93.6417,-2.0,29.86,11111222 
TABS,ioos:station:wmo:42051:1,2001-07-08T19:00:00Z,29.6350,-93.6417,-2.0,29.81,11111222 
TABS,ioos:station:wmo:42051:1,2001-07-08T19:30:00Z,29.6350,-93.6417,-2.0,29.48,11111222 
TABS,ioos:station:wmo:42051:1,2001-07-08T20:00:00Z,29.6350,-93.6417,-2.0,29.37,11111222 
TABS,ioos:station:wmo:42051:1,2001-07-08T20:30:00Z,29.6350,-93.6417,-2.0,29.4,11111222 
TABS,ioos:station:wmo:42051:1,2001-07-08T21:00:00Z,29.6350,-93.6417,-2.0,29.43,11111222 
TABS,ioos:station:wmo:42051:1,2001-07-08T21:30:00Z,29.6350,-93.6417,-2.0,29.48,11111222 
TABS,ioos:station:wmo:42051:1,2001-07-08T22:00:00Z,29.6350,-93.6417,-2.0,29.48,11111222 
TABS,ioos:station:wmo:42051:1,2001-07-08T22:30:00Z,29.6350,-93.6417,-2.0,29.54,11111222 
TABS,ioos:station:wmo:42051:1,2001-07-08T23:00:00Z,29.6350,-93.6417,-2.0,29.67,11111222 
TABS,ioos:station:wmo:42051:1,2001-07-08T23:30:00Z,29.6350,-93.6417,-2.0,29.82,11111222 
TABS,ioos:station:wmo:42051:1,2001-07-09T00:00:00Z,29.6350,-93.6417,-2.0,29.92,11111222 
TABS,ioos:station:wmo:42051:1,2001-07-09T00:30:00Z,29.6350,-93.6417,-2.0,30.07,11111222 
TABS,ioos:station:wmo:42051:1,2001-07-09T01:00:00Z,29.6350,-93.6417,-2.0,30.47,11111222 
TABS,ioos:station:wmo:42051:1,2001-07-09T01:30:00Z,29.6350,-93.6417,-2.0,30.4,11111222 
TABS,ioos:station:wmo:42051:1,2001-07-09T02:00:00Z,29.6350,-93.6417,-2.0,30.19,11111222 
TABS,ioos:station:wmo:42051:1,2001-07-09T02:30:00Z,29.6350,-93.6417,-2.0,30.13,11111222 
TABS,ioos:station:wmo:42051:1,2001-07-09T03:00:00Z,29.6350,-93.6417,-2.0,30.03,11111222 
TABS,ioos:station:wmo:42051:1,2001-07-09T03:30:00Z,29.6350,-93.6417,-2.0,29.95,11111222 
TABS,ioos:station:wmo:42051:1,2001-07-09T04:00:00Z,29.6350,-93.6417,-2.0,29.96,11111222 
TABS,ioos:station:wmo:42051:1,2001-07-09T04:30:00Z,29.6350,-93.6417,-2.0,30.13,11111222 
TABS,ioos:station:wmo:42051:1,2001-07-09T05:00:00Z,29.6350,-93.6417,-2.0,30.22,11111222 
TABS,ioos:station:wmo:42051:1,2001-07-09T05:30:00Z,29.6350,-93.6417,-2.0,30.32,11111222 
TABS,ioos:station:wmo:42051:1,2001-07-09T06:00:00Z,29.6350,-93.6417,-2.0,30.31,11111222 
TABS,ioos:station:wmo:42051:1,2001-07-09T06:30:00Z,29.6350,-93.6417,-2.0,30.21,11111222 
TABS,ioos:station:wmo:42051:1,2001-07-09T07:00:00Z,29.6350,-93.6417,-2.0,30.1,11111222 
TABS,ioos:station:wmo:42051:1,2001-07-09T07:30:00Z,29.6350,-93.6417,-2.0,30.04,11111222 
TABS,ioos:station:wmo:42051:1,2001-07-09T08:00:00Z,29.6350,-93.6417,-2.0,30.08,11111222 
TABS,ioos:station:wmo:42051:1,2001-07-09T08:30:00Z,29.6350,-93.6417,-2.0,30.13,11111222 
TABS,ioos:station:wmo:42051:1,2001-07-09T09:00:00Z,29.6350,-93.6417,-2.0,30.08,11111222 
TABS,ioos:station:wmo:42051:1,2001-07-09T09:30:00Z,29.6350,-93.6417,-2.0,30.02,11111222 
TABS,ioos:station:wmo:42051:1,2001-07-09T10:00:00Z,29.6350,-93.6417,-2.0,30.09,11111222 
TABS,ioos:station:wmo:42051:1,2001-07-09T10:30:00Z,29.6350,-93.6417,-2.0,30.08,11111222 
TABS,ioos:station:wmo:42051:1,2001-07-09T11:00:00Z,29.6350,-93.6417,-2.0,30.1,11111222 
TABS,ioos:station:wmo:42051:1,2001-07-09T11:30:00Z,29.6350,-93.6417,-2.0,30.06,11111222 
TABS,ioos:station:wmo:42051:1,2001-07-09T12:00:00Z,29.6350,-93.6417,-2.0,30.06,11111222 
TABS,ioos:station:wmo:42051:1,2001-07-09T12:30:00Z,29.6350,-93.6417,-2.0,30.06,11111222 
TABS,ioos:station:wmo:42051:1,2001-07-09T13:00:00Z,29.6350,-93.6417,-2.0,30.0,11111222 
TABS,ioos:station:wmo:42051:1,2001-07-09T13:30:00Z,29.6350,-93.6417,-2.0,29.95,11111222 
TABS,ioos:station:wmo:42051:1,2001-07-09T14:00:00Z,29.6350,-93.6417,-2.0,29.94,11111222 
TABS,ioos:station:wmo:42051:1,2001-07-09T14:30:00Z,29.6350,-93.6417,-2.0,29.94,11111222 
TABS,ioos:station:wmo:42051:1,2001-07-09T15:00:00Z,29.6350,-93.6417,-2.0,29.95,11111222 
TABS,ioos:station:wmo:42051:1,2001-07-09T15:30:00Z,29.6350,-93.6417,-2.0,29.98,11111222 
TABS,ioos:station:wmo:42051:1,2001-07-09T16:00:00Z,29.6350,-93.6417,-2.0,30.03,11111222 